Location: Rounton
(54.4000°N, 1.3500°W)
Time: 01:53:18
(UTC+00:00)

Envisat - Pass Details

Date: 24 October 2021
Orbit: 764 x 766 km, 98.2° (Epoch: 28 November)

Event Time Altitude Azimuth Distance (km) Brightness Sun altitude
Rises 06:54:34 0° 13° (NNE) 3,248 6.3 -8.9°
Reaches altitude 10° 06:56:54 10° 10° (N) 2,317 5.5 -8.6°
Maximum altitude 07:01:56 62° 291° (WNW) 861 3.0 -7.8°
Drops below altitude 10° 07:06:56 10° 212° (SSW) 2,300 5.3 -7.1°
Sets 07:09:15 0° 209° (SSW) 3,221 6.0 -6.8°
